| time (UTC) | temp C | wind direction | speed KPH | gust KPH | rain 1hr cm | rain 24hr cm | rain mn cm | humidity % | barometer mb |
| 20260510114543 | 17 | 59 | 3.2 | 16.1 | 0.00 | 0.00 | 0.00 | 50 | 1014.2 |
| 20260510113053 | 17 | 71 | 6.4 | 12.9 | 0.00 | 0.00 | 0.00 | 55 | 1014.4 |
| 20260510111546 | 16 | 101 | 8.0 | 19.3 | 0.00 | 0.00 | 0.00 | 54 | 1014.7 |
| 20260510110052 | 16 | 40 | 4.8 | 14.5 | 0.00 | 0.00 | 0.00 | 54 | 1015.1 |
| 20260510104554 | 16 | 96 | 4.8 | 16.1 | 0.00 | 0.00 | 0.00 | 57 | 1015.3 |
| 20260510103050 | 16 | 105 | 8.0 | 17.7 | 0.00 | 0.00 | 0.00 | 58 | 1015.5 |
| 20260510101555 | 15 | 19 | 3.2 | 14.5 | 0.00 | 0.00 | 0.00 | 57 | 1015.7 |
| 20260510100043 | 15 | 26 | 4.8 | 12.9 | 0.00 | 0.00 | 0.00 | 57 | 1016.0 |
| 20260510094553 | 14 | 321 | 1.6 | 12.9 | 0.00 | 0.00 | 0.00 | 60 | 1016.1 |
| 20260510093051 | 13 | 325 | 4.8 | 11.3 | 0.00 | 0.00 | 0.00 | 62 | 1016.4 |
| 20260510091551 | 13 | 313 | 4.8 | 11.3 | 0.00 | 0.00 | 0.00 | 61 | 1016.4 |
| 20260510090048 | 14 | 319 | 4.8 | 14.5 | 0.00 | 0.00 | 0.00 | 60 | 1016.6 |
| 20260510084546 | 14 | 194 | 6.4 | 17.7 | 0.00 | 0.00 | 0.00 | 63 | 1016.7 |
| 20260510083043 | 14 | 200 | 9.7 | 16.1 | 0.00 | 0.00 | 0.00 | 64 | 1016.9 |
| 20260510081553 | 13 | 140 | 9.7 | 17.7 | 0.00 | 0.00 | 0.00 | 63 | 1017.0 |
| 20260510080042 | 12 | 76 | 6.4 | 14.5 | 0.00 | 0.00 | 0.00 | 60 | 1017.1 |
| 20260510074549 | 12 | 116 | 8.0 | 14.5 | 0.00 | 0.00 | 0.00 | 60 | 1017.1 |
| 20260510073104 | 12 | 138 | 8.0 | 14.5 | 0.00 | 0.00 | 0.00 | 62 | 1017.0 |
| 20260510071553 | 12 | 115 | 4.8 | 16.1 | 0.00 | 0.00 | 0.00 | 62 | 1017.2 |
| 20260510070051 | 11 | 43 | 8.0 | 14.5 | 0.00 | 0.00 | 0.00 | 61 | 1017.2 |
| 20260510064556 | 11 | 29 | 4.8 | 12.9 | 0.00 | 0.00 | 0.00 | 61 | 1017.3 |
| 20260510063050 | 11 | 35 | 4.8 | 16.1 | 0.00 | 0.00 | 0.00 | 62 | 1017.3 |
| 20260510061550 | 11 | 45 | 8.0 | 17.7 | 0.00 | 0.00 | 0.00 | 62 | 1017.5 |
| 20260510060049 | 11 | 71 | 8.0 | 14.5 | 0.00 | 0.00 | 0.00 | 64 | 1017.6 |
| 20260510054544 | 10 | 79 | 11.3 | 16.1 | 0.00 | 0.00 | 0.00 | 67 | 1017.7 |
| 20260510053042 | 8 | 33 | 8.0 | 14.5 | 0.00 | 0.00 | 0.00 | 74 | 1017.6 |
| 20260510051554 | 7 | 49 | 6.4 | 16.1 | 0.00 | 0.00 | 0.00 | 80 | 1017.6 |
| 20260510050049 | 7 | 82 | 4.8 | 9.7 | 0.00 | 0.00 | 0.00 | 85 | 1017.6 |
| 20260510044552 | 7 | 78 | 3.2 | 8.0 | 0.00 | 0.00 | 0.00 | 87 | 1017.7 |
| 20260510043053 | 7 | 0 | 0.0 | 3.2 | 0.00 | 0.00 | 0.00 | 88 | 1017.7 |
| 20260510041548 | 6 | 105 | 1.6 | 4.8 | 0.00 | 0.00 | 0.00 | 89 | 1017.7 |
| 20260510040050 | 6 | 0 | 0.0 | 3.2 | 0.00 | 0.00 | 0.00 | 89 | 1017.8 |
| 20260510034543 | 6 | 0 | 0.0 | 0.0 | 0.00 | 0.00 | 0.00 | 89 | 1017.7 |
| 20260510033045 | 6 | 0 | 0.0 | 0.0 | 0.00 | 0.00 | 0.00 | 88 | 1017.7 |
| 20260510031553 | 6 | 0 | 0.0 | 4.8 | 0.00 | 0.00 | 0.00 | 88 | 1017.6 |
| 20260510030044 | 6 | 76 | 1.6 | 4.8 | 0.00 | 0.00 | 0.00 | 88 | 1017.6 |
| 20260510024548 | 5 | 0 | 0.0 | 3.2 | 0.00 | 0.00 | 0.00 | 88 | 1017.6 |
| 20260510023050 | 5 | 0 | 0.0 | 0.0 | 0.00 | 0.00 | 0.00 | 87 | 1017.7 |
| 20260510021550 | 5 | 0 | 0.0 | 1.6 | 0.00 | 0.00 | 0.00 | 87 | 1017.7 |
| 20260510020051 | 5 | 55 | 1.6 | 4.8 | 0.00 | 0.00 | 0.00 | 86 | 1017.8 |
| 20260510014550 | 5 | 0 | 0.0 | 4.8 | 0.00 | 0.00 | 0.00 | 85 | 1017.8 |
| 20260510013049 | 5 | 55 | 1.6 | 4.8 | 0.00 | 0.00 | 0.00 | 85 | 1017.9 |
| 20260510011546 | 6 | 55 | 0.0 | 3.2 | 0.00 | 0.00 | 0.00 | 85 | 1018.0 |
| 20260510010044 | 7 | 55 | 1.6 | 4.8 | 0.00 | 0.00 | 0.00 | 84 | 1018.0 |
| 20260510004549 | 7 | 0 | 0.0 | 3.2 | 0.00 | 0.00 | 0.00 | 84 | 1018.1 |
| 20260510003049 | 7 | 0 | 0.0 | 4.8 | 0.00 | 0.00 | 0.00 | 84 | 1018.1 |
| 20260510001552 | 7 | 0 | 0.0 | 0.0 | 0.00 | 0.00 | 0.00 | 84 | 1018.2 |
| 20260510000052 | 7 | 0 | 0.0 | 3.2 | 0.00 | 0.00 | 0.00 | 84 | 1018.4 |
| 20260509234546 | 7 | 54 | 1.6 | 6.4 | 0.00 | 0.00 | 0.00 | 83 | 1018.4 |
| 20260509233048 | 7 | 36 | 3.2 | 6.4 | 0.00 | 0.00 | 0.00 | 83 | 1018.5 |
| 20260509231550 | 7 | 34 | 1.6 | 6.4 | 0.00 | 0.00 | 0.00 | 83 | 1018.6 |
| 20260509230043 | 7 | 63 | 3.2 | 6.4 | 0.00 | 0.00 | 0.00 | 83 | 1018.6 |
| 20260509224557 | 7 | 85 | 0.0 | 8.0 | 0.00 | 0.00 | 0.00 | 83 | 1018.7 |
| 20260509223048 | 7 | 80 | 1.6 | 9.7 | 0.00 | 0.00 | 0.00 | 83 | 1018.9 |
| 20260509221600 | 7 | 78 | 4.8 | 9.7 | 0.00 | 0.00 | 0.00 | 83 | 1019.0 |
| 20260509220048 | 7 | 46 | 6.4 | 14.5 | 0.00 | 0.00 | 0.00 | 83 | 1018.9 |
| 20260509214548 | 7 | 47 | 6.4 | 14.5 | 0.00 | 0.00 | 0.00 | 83 | 1019.2 |
| 20260509213049 | 8 | 46 | 3.2 | 12.9 | 0.00 | 0.00 | 0.00 | 83 | 1019.4 |
| 20260509211546 | 8 | 77 | 6.4 | 16.1 | 0.00 | 0.00 | 0.00 | 82 | 1019.4 |
| 20260509210049 | 8 | 59 | 8.0 | 16.1 | 0.00 | 0.00 | 0.00 | 82 | 1019.2 |
| 20260509204551 | 8 | 67 | 6.4 | 17.7 | 0.00 | 0.00 | 0.00 | 82 | 1019.2 |
| 20260509203046 | 8 | 80 | 8.0 | 16.1 | 0.00 | 0.00 | 0.00 | 83 | 1019.2 |
| 20260509201558 | 8 | 57 | 8.0 | 20.9 | 0.00 | 0.00 | 0.00 | 82 | 1019.2 |
| 20260509200058 | 8 | 65 | 6.4 | 19.3 | 0.00 | 0.00 | 0.00 | 82 | 1019.2 |
| 20260509194545 | 8 | 78 | 9.7 | 17.7 | 0.00 | 0.00 | 0.00 | 82 | 1019.1 |
| 20260509193048 | 8 | 77 | 8.0 | 20.9 | 0.00 | 0.00 | 0.00 | 82 | 1019.0 |
| 20260509191546 | 8 | 48 | 8.0 | 20.9 | 0.00 | 0.00 | 0.00 | 81 | 1018.9 |
| 20260509190103 | 8 | 50 | 11.3 | 20.9 | 0.00 | 0.00 | 0.00 | 81 | 1018.8 |
| 20260509184547 | 8 | 40 | 12.9 | 22.5 | 0.00 | 0.10 | 0.00 | 81 | 1018.8 |
| 20260509183049 | 9 | 56 | 12.9 | 24.1 | 0.00 | 0.10 | 0.00 | 81 | 1018.5 |
| 20260509181548 | 9 | 82 | 14.5 | 25.7 | 0.00 | 0.10 | 0.00 | 81 | 1018.6 |
| 20260509180051 | 9 | 38 | 14.5 | 25.7 | 0.00 | 0.10 | 0.00 | 81 | 1018.5 |
| 20260509174543 | 9 | 58 | 14.5 | 25.7 | 0.00 | 0.13 | 0.00 | 81 | 1018.4 |
| 20260509173049 | 9 | 38 | 17.7 | 30.6 | 0.00 | 0.13 | 0.00 | 81 | 1018.3 |
| 20260509171548 | 10 | 29 | 17.7 | 27.4 | 0.00 | 0.13 | 0.00 | 81 | 1018.2 |
| 20260509170044 | 10 | 47 | 14.5 | 25.7 | 0.00 | 0.13 | 0.00 | 81 | 1018.0 |
| 20260509164551 | 10 | 23 | 17.7 | 30.6 | 0.00 | 0.15 | 0.00 | 80 | 1018.0 |
| 20260509163051 | 10 | 49 | 17.7 | 30.6 | 0.00 | 0.15 | 0.00 | 80 | 1018.1 |
| 20260509161556 | 10 | 49 | 19.3 | 29.0 | 0.00 | 0.15 | 0.00 | 80 | 1018.0 |
| 20260509160053 | 10 | 40 | 17.7 | 30.6 | 0.00 | 0.15 | 0.00 | 79 | 1018.2 |
| 20260509154550 | 11 | 43 | 16.1 | 29.0 | 0.00 | 0.15 | 0.00 | 78 | 1018.0 |
| 20260509153053 | 11 | 57 | 19.3 | 30.6 | 0.00 | 0.15 | 0.00 | 78 | 1018.0 |
| 20260509151548 | 11 | 46 | 17.7 | 30.6 | 0.00 | 0.15 | 0.00 | 79 | 1017.9 |
| 20260509150051 | 11 | 32 | 17.7 | 32.2 | 0.00 | 0.15 | 0.00 | 78 | 1018.0 |
| 20260509144547 | 11 | 45 | 17.7 | 30.6 | 0.00 | 0.15 | 0.00 | 78 | 1017.8 |
| 20260509143056 | 11 | 39 | 19.3 | 27.4 | 0.00 | 0.15 | 0.00 | 76 | 1017.9 |
| 20260509141544 | 11 | 58 | 14.5 | 27.4 | 0.00 | 0.15 | 0.00 | 77 | 1018.0 |
| 20260509140100 | 11 | 42 | 19.3 | 27.4 | 0.00 | 0.15 | 0.00 | 77 | 1018.0 |
| 20260509134623 | 12 | 63 | 16.1 | 24.1 | 0.00 | 0.15 | 0.00 | 77 | 1017.9 |
| 20260509133047 | 12 | 52 | 14.5 | 29.0 | 0.00 | 0.15 | 0.00 | 77 | 1018.0 |
| 20260509131551 | 12 | 44 | 17.7 | 27.4 | 0.00 | 0.15 | 0.00 | 76 | 1018.0 |
| 20260509130045 | 12 | 46 | 17.7 | 24.1 | 0.00 | 0.15 | 0.00 | 76 | 1018.1 |
| 20260509124543 | 12 | 35 | 11.3 | 24.1 | 0.00 | 0.15 | 0.00 | 76 | 1018.1 |
| 20260509123047 | 12 | 42 | 19.3 | 27.4 | 0.00 | 0.15 | 0.00 | 74 | 1018.3 |
| 20260509121550 | 12 | 40 | 16.1 | 24.1 | 0.00 | 0.15 | 0.00 | 75 | 1018.4 |
| 20260509120050 | 12 | 41 | 11.3 | 25.7 | 0.00 | 0.15 | 0.00 | 77 | 1018.4 |